Location: Kellogg
(38.0159°N, 90.0546°W)
Time: 21:08:33
(UTC+00:00)

Transit 4A - Pass Details

Date: 17 September 2024
Orbit: 864 x 978 km, 66.8° (Epoch: 12 October)

Event Time Altitude Azimuth Distance (km) Brightness Sun altitude
Rises 19:16:22 0° 309° (NW) 3,635 11.0 49.2°
Reaches altitude 10° 19:20:43 10° 281° (W) 2,703 10.7 48.8°
Maximum altitude 19:23:01 12° 259° (W) 2,552 10.8 48.5°
Drops below altitude 10° 19:25:20 10° 237° (WSW) 2,712 11.2 48.2°
Sets 19:29:44 0° 209° (SSW) 3,661 11.7 47.7°
